Kars, Turkey

1:40 PM EEST on August 25, 2016 (GMT +0300)
Kars

Weather History for LTCF - January, 2013

Change the Weather History Date:

Thursday, January 17, 2013

  Actual Average Record
Temperature  
Mean Temperature -2 °F -  
Max Temperature 17 °F 25 °F - ()
Min Temperature -20 °F 7 °F - ()
Degree Days  
Heating Degree Days 66    
Moisture  
Dew Point -9 °F    
Average Humidity 75    
Maximum Humidity 99    
Minimum Humidity 55    
Precipitation  
Precipitation 0.00 in 0.03 in - ()
Sea Level Pressure  
Sea Level Pressure 30.13 in    
Wind  
Wind Speed 2 mph ()    
Max Wind Speed 16 mph    
Max Gust Speed -    
Visibility 6.2 miles    
Events      
T = Trace of Precipitation, MM = Missing Value Source: Averaged Metar Reports

Daily Weather History Graph

Daily Weather History Graph

Search for Another Location

Airport or City:

Trip Planner

Search our weather history database for the weather conditions in past years. The results will help you decide how hot, cold, wet, or windy it might be!

Date:

Astronomy

Jan. 17, 2013 Rise Set
Actual Time 6:28 AM EET 4:07 PM EET
Civil Twilight 5:58 AM EET 4:37 PM EET
Nautical Twilight 5:24 AM EET 5:11 PM EET
Astronomical Twilight 4:52 AM EET 5:43 PM EET
Moon 9:22 AM EET (1/17) 10:39 PM EET (1/17)
Length of Visible Light 10h 39m
Length of Day
9h 39m
Waxing Crescent, 34% of the Moon is Illuminated
Jan 17
Waxing Crescent
Jan 19
First Quarter
Jan 27
Full
Feb 3
Last Quarter
Feb 10
New

Hourly Weather History & Observations

Time (EET) Temp. Windchill Dew Point Humidity Pressure Visibility Wind Dir Wind Speed Gust Speed Precip Events Conditions
12:50 AM -16.6 °F - -22.0 °F 76% 30.24 in - Calm Calm - N/A   Clear
1:50 AM -16.6 °F - -22.0 °F 76% 30.24 in - Calm Calm - N/A   Clear
2:00 AM -16 °F - -20 °F 71%  in 6 mi Calm Calm - -  
2:50 AM -18.4 °F - -23.8 °F 76% 30.21 in - Calm Calm - N/A   Clear
3:50 AM -14.8 °F - -20.2 °F 77% 30.18 in - Calm Calm - N/A   Clear
4:50 AM -18.4 °F - -23.8 °F 76% 30.18 in - Calm Calm - N/A   Clear
5:50 AM -16.6 °F - -22.0 °F 76% 30.18 in 6.2 mi Calm Calm - N/A   Partly Cloudy
6:50 AM -18.4 °F - -23.8 °F 76% 30.18 in 6.2 mi Calm Calm - N/A   Partly Cloudy
7:50 AM -14.8 °F - -18.4 °F 84% 30.18 in 6.2 mi Calm Calm - N/A   Mostly Cloudy
8:00 AM -14 °F - -14 °F 99%  in 6 mi Calm Calm - -   Partly Cloudy
8:50 AM -13.0 °F - -18.4 °F 77% 30.15 in 6.2 mi Calm Calm - N/A   Mostly Cloudy
9:50 AM -7.6 °F - -13.0 °F 77% 30.18 in 6.2 mi Calm Calm - N/A   Mostly Cloudy
10:50 AM -4.0 °F - -9.4 °F 78% 30.12 in 6.2 mi Calm Calm - N/A   Mostly Cloudy
11:50 AM -0.4 °F - -4.0 °F 85% 30.09 in 6.2 mi WNW 2.3 mph - N/A   Mostly Cloudy
12:50 PM 5.0 °F - 1.4 °F 85% 30.06 in 6.2 mi Calm Calm - N/A   Mostly Cloudy
1:50 PM 3.2 °F -7.8 °F -2.2 °F 78% 30.06 in 6.2 mi NW 5.8 mph - N/A   Scattered Clouds
2:00 PM 2 °F - -0 °F 85%  in 6 mi NW 5.8 mph - -   Partly Cloudy
2:50 PM 3.2 °F -11.3 °F -2.2 °F 78% 30.06 in 6.2 mi SE 9.2 mph - N/A   Mostly Cloudy
3:50 PM 3.2 °F -9.1 °F -2.2 °F 78% 30.09 in 6.2 mi South 6.9 mph - N/A   Mostly Cloudy
4:50 PM 1.4 °F -11.3 °F -4.0 °F 78% 30.06 in 6.2 mi North 6.9 mph - N/A   Partly Cloudy
5:50 PM -0.4 °F -13.4 °F -5.8 °F 78% 30.06 in 6.2 mi South 6.9 mph - N/A   Partly Cloudy
6:50 PM 12.2 °F 1.7 °F 1.4 °F 62% 30.09 in - South 6.9 mph - N/A   Clear
7:50 PM 10.4 °F -0.4 °F -0.4 °F 62% 30.09 in - SSW 6.9 mph - N/A   Clear
8:00 PM 11 °F - 2 °F 55%  in 6 mi SSW 6.9 mph - -  
8:50 PM 12.2 °F -4.3 °F 3.2 °F 67% 30.09 in - SSW 16.1 mph - N/A   Clear
9:50 PM 17.6 °F 9.3 °F 5.0 °F 58% 30.09 in - West 5.8 mph - N/A   Clear
10:50 PM 15.8 °F 8.6 °F 5.0 °F 62% 30.09 in - West 4.6 mph - N/A   Clear
11:50 PM 14.0 °F -0.2 °F 5.0 °F 67% 30.06 in - SW 12.7 mph - N/A   Clear